EW5586 Weather Reports


time (UTC)temp
C
wind
direction
speed
KPH
gust
KPH
rain 1hr
cm
rain 24hr
cm
rain mn
cm
humidity
%
barometer
mb
20260903100924 -17 0.0 0.0 0.00 0.00 0.00 1011.1
20260903100425 -17 0.0 0.0 0.00 0.00 0.00 1011.0
20260903095330 -17 0.0 0.0 0.00 0.00 0.00 1011.0
20260903094820 -17 0.0 0.0 0.00 0.00 0.00 1011.1
20260903094258 -17 0.0 0.0 0.00 0.00 0.00 1011.0
20260903093719 -17 0.0 0.0 0.00 0.00 0.00 1011.0
20260903093217 -17 0.0 0.0 0.00 0.00 0.00 1010.9
20260903092628 -17 0.0 0.0 0.00 0.00 0.00 1010.9
20260903092123 -17 0.0 0.0 0.00 0.00 0.00 1010.7
20260903091026 -17 0.0 0.0 0.00 0.00 0.00 1010.8
20260903090503 -17 0.0 0.0 0.00 0.00 0.00 1010.8
20260903085919 -17 0.0 0.0 0.00 0.00 0.00 1010.8
20260903085327 -17 0.0 0.0 0.00 0.00 0.00 1010.8
20260903084823 -17 0.0 0.0 0.00 0.00 0.00 1010.7
20260903084320 -17 0.0 0.0 0.00 0.00 0.00 1010.7
20260903083732 -17 0.0 0.0 0.00 0.00 0.00 1010.7
20260903082721 -17 0.0 0.0 0.00 0.00 0.00 1010.7
20260903082221 -17 0.0 0.0 0.00 0.00 0.00 1010.8
20260903081623 -17 0.0 0.0 0.00 0.00 0.00 1010.9
20260903081119 -17 0.0 0.0 0.00 0.00 0.00 1010.9
20260903080529 -17 0.0 0.0 0.00 0.00 0.00 1010.9
20260903075522 -17 0.0 0.0 0.00 0.00 0.00 1010.9
20260903074419 -17 0.0 0.0 0.00 0.00 0.00 1011.0
20260903073825 -17 0.0 0.0 0.00 0.00 0.00 1010.9
20260903073325 -17 0.0 0.0 0.00 0.00 0.00 1011.0
20260903072725 -17 0.0 0.0 0.00 0.00 0.00 1011.0
20260903072223 21 0.0 0.0 0.00 0.00 0.00 95 1010.9
20260903071722 21 0 0.0 0.0 0.00 0.00 0.00 95 1011.1
20260903071123 21 0 0.0 0.0 0.00 0.00 0.00 95 1011.1
20260903070604 21 0 0.0 8.0 0.00 0.00 0.00 95 1011.2
20260903070059 21 0 0.0 8.0 0.00 0.00 0.00 96 1011.2
20260903065558 21 213 1.6 11.3 0.00 0.00 0.00 95 1011.2
20260903065052 21 205 3.2 11.3 0.00 0.00 0.00 95 1011.1
20260903064546 21 209 3.2 12.9 0.00 0.00 0.00 95 1011.1
20260903064040 21 236 3.2 12.9 0.00 0.00 0.00 95 1011.2
20260903063534 21 200 1.6 9.7 0.00 0.00 0.00 95 1011.1
20260903062522 21 228 1.6 9.7 0.00 0.00 0.00 95 1011.2
20260903062016 21 219 3.2 14.5 0.00 0.00 0.00 95 1011.0
20260903061510 21 191 3.2 16.1 0.00 0.00 0.00 95 1011.0
20260903060459 21 155 3.2 11.3 0.00 0.00 0.00 95 1011.2
20260903055952 21 227 4.8 14.5 0.00 0.00 0.00 95 1011.1
20260903054939 21 184 4.8 12.9 0.00 0.00 0.00 95 1010.9
20260903054433 21 209 4.8 14.5 0.00 0.00 0.00 95 1010.8
20260903053926 21 223 6.4 14.5 0.00 0.00 0.00 95 1010.9
20260903053421 21 204 6.4 12.9 0.00 0.00 0.00 95 1010.9
20260903052914 21 215 8.0 12.9 0.00 0.00 0.00 95 1010.9
20260903052408 21 227 6.4 12.9 0.00 0.00 0.00 96 1010.8
20260903051356 21 195 0.0 8.0 0.00 0.00 0.00 95 1010.7
20260903050850 21 213 0.0 8.0 0.00 0.00 0.00 95 1010.8
20260903050346 21 182 0.0 4.8 0.00 0.00 0.00 95 1010.7
20260903045838 21 271 0.0 11.3 0.00 0.00 0.00 95 1010.8
20260903045333 21 220 0.0 11.3 0.00 0.00 0.00 95 1010.7
20260903044320 21 153 4.8 14.5 0.00 0.00 0.00 95 1010.9
20260903043814 21 221 4.8 17.7 0.00 0.00 0.00 96 1010.8
20260903043308 21 205 6.4 17.7 0.00 0.00 0.00 96 1010.9
20260903042803 21 250 8.0 20.9 0.00 0.00 0.00 96 1010.9
20260903042256 21 223 8.0 20.9 0.00 0.00 0.00 96 1010.9
20260903041751 21 210 6.4 17.7 0.00 0.00 0.00 96 1011.0
20260903041244 21 198 6.4 19.3 0.00 0.00 0.00 96 1011.1
20260903040737 21 0 8.0 19.3 0.00 0.00 0.00 96 1011.1
20260903040239 21 188 8.0 24.1 0.00 0.00 0.00 96 1011.0
20260903035739 21 186 9.7 24.1 0.00 0.00 0.00 96 1010.9
20260903035236 21 205 9.7 24.1 0.00 0.00 0.00 96 1010.8
20260903034736 21 258 8.0 24.1 0.00 0.00 0.00 96 1010.8
20260903033735 21 212 8.0 19.3 0.00 0.00 0.00 96 1010.9
20260903033234 21 201 6.4 19.3 0.00 0.00 0.00 96 1010.9
20260903032736 21 182 6.4 14.5 0.00 0.00 0.00 95 1010.9
20260903032234 21 162 6.4 14.5 0.00 0.00 0.00 95 1010.9
20260903031734 21 207 4.8 12.9 0.00 0.00 0.00 95 1011.0
20260903031234 22 156 4.8 14.5 0.00 0.00 0.00 96 1010.9
20260903030234 22 198 0.0 6.4 0.00 0.00 0.00 95 1011.0
20260903025735 22 205 0.0 4.8 0.00 0.00 0.00 95 1011.0
20260903025234 22 247 1.6 11.3 0.00 0.00 0.00 95 1010.9
20260903024733 22 230 1.6 11.3 0.00 0.00 0.00 95 1010.8
20260903024230 22 230 1.6 9.7 0.00 0.00 0.00 95 1010.8
20260903022212 21 350 0.0 0.0 0.00 0.00 0.00 95 1011.1
20260903020654 21 350 0.0 9.7 0.00 0.00 0.00 94 1010.8
20260903020149 21 350 1.6 9.7 0.00 0.00 0.00 94 1010.9
20260903015137 22 153 4.8 17.7 0.00 0.00 0.00 94 1010.9
20260903014630 22 170 4.8 17.7 0.00 0.00 0.00 93 1010.7
20260903014130 22 217 4.8 17.7 0.00 0.00 0.00 93 1010.7
20260903013631 22 182 0.0 9.7 0.00 0.00 0.00 92 1010.4
20260903013131 22 171 1.6 8.0 0.00 0.00 0.00 92 1010.4
20260903012630 22 169 6.4 14.5 0.00 0.00 0.00 92 1010.2
20260903011128 22 192 14.5 29.0 0.00 0.00 0.00 90 1009.9
20260903010628 22 153 14.5 24.1 0.00 0.00 0.00 90 1010.2
20260903005628 22 171 16.1 25.7 0.00 0.00 0.00 90 1010.5
20260903005127 23 169 16.1 25.7 0.00 0.00 0.00 90 1010.6
20260903004627 23 141 14.5 25.7 0.00 0.00 0.00 90 1010.6
20260903004125 23 169 11.3 19.3 0.00 0.00 0.00 90 1010.8
20260903003625 23 162 11.3 17.7 0.00 0.00 0.00 90 1010.9
20260903003125 23 159 14.5 24.1 0.00 0.00 0.00 90 1010.8
20260903002622 23 152 16.1 24.1 0.00 0.00 0.00 89 1010.7
20260903002123 23 165 17.7 25.7 0.00 0.00 0.00 89 1010.7
20260903001622 23 161 17.7 27.4 0.00 0.00 0.00 89 1010.8
20260903001123 23 169 17.7 27.4 0.00 0.00 0.00 89 1010.7
20260903000623 23 161 19.3 30.6 0.00 0.00 0.00 89 1010.6
20260903000122 23 142 20.9 30.6 0.00 0.00 0.00 89 1010.4
20260902234616 23 157 11.3 17.7 0.00 0.00 0.00 92 1010.8
20260902234110 23 157 9.7 16.1 0.00 0.00 0.00 92 1010.9
20260902232556 23 160 6.4 9.7 0.00 0.00 0.00 91 1010.9
20260902231538 23 172 4.8 9.7 0.00 0.00 0.00 89 1011.0
20260902231030 23 0 3.2 8.0 0.00 0.00 0.00 88 1010.9
20260902230524 23 165 1.6 8.0 0.00 0.00 0.00 87 1011.0
20260902230018 24 166 0.0 6.4 0.00 0.00 0.00 86 1010.9
20260902225006 24 177 0.0 1.6 0.00 0.00 0.00 86 1010.9
20260902224500 24 155 0.0 1.6 0.00 0.00 0.00 86 1011.0
20260902223955 23 155 0.0 0.0 0.00 0.00 0.00 86 1011.0
20260902223448 23 151 0.0 0.0 0.00 0.00 0.00 87 1010.7
20260902222943 23 200 0.0 0.0 0.00 0.00 0.00 87 1010.7
20260902222436 23 200 0.0 0.0 0.00 0.00 0.00 88 1010.7
20260902221931 23 217 0.0 0.0 0.00 0.00 0.00 88 1010.8
20260902221424 23 218 0.0 4.8 0.00 0.00 0.00 88 1010.8
20260902214908 24 173 0.0 4.8 0.00 0.00 0.00 84 1011.2
20260902214410 24 174 0.0 4.8 0.00 0.00 0.00 83 1011.6
20260902213906 24 192 1.6 4.8 0.00 0.00 0.00 83 1011.8
20260902212902 24 196 1.6 8.0 0.00 0.00 0.00 84 1011.9
20260902211904 24 217 4.8 9.7 0.00 0.00 0.00 84 1012.0
20260902210902 25 165 8.0 19.3 0.00 0.00 0.00 83 1012.0
20260902210402 25 170 8.0 19.3 0.00 0.00 0.00 80 1012.1
20260902205902 25 228 6.4 19.3 0.00 0.00 0.00 79 1012.4
20260902204902 25 224 6.4 19.3 0.00 0.00 0.00 80 1013.1
20260902204402 25 252 4.8 19.3 0.00 0.00 0.00 80 1013.4
20260902203902 25 200 4.8 16.1 0.00 0.00 0.00 80 1013.2
20260902203402 25 214 6.4 20.9 0.00 0.00 0.00 80 1013.1
20260902202900 25 223 6.4 20.9 0.00 0.00 0.00 80 1012.9
20260902202400 25 225 8.0 22.5 0.00 0.00 0.00 81 1012.8
20260902201858 25 0 8.0 22.5 0.00 0.00 0.00 82 1012.7
20260902201359 25 144 8.0 16.1 0.00 0.00 0.00 82 1012.6
20260902200858 25 148 8.0 14.5 0.00 0.00 0.00 83 1012.7
20260902200358 25 186 9.7 14.5 0.00 0.00 0.00 82 1012.5
20260902195859 25 148 6.4 14.5 0.00 0.00 0.00 81 1012.5
20260902194858 25 164 4.8 14.5 0.00 0.00 0.00 79 1013.2
20260902194359 25 224 3.2 12.9 0.00 0.00 0.00 80 1013.4
20260902193858 25 211 3.2 11.3 0.00 0.00 0.00 81 1013.4
20260902193358 25 169 6.4 14.5 0.00 0.00 0.00 82 1013.4
20260902192858 25 153 6.4 14.5 0.00 0.00 0.00 81 1013.3
20260902192359 25 175 8.0 16.1 0.00 0.00 0.00 80 1013.3
20260902191858 25 212 8.0 16.1 0.00 0.00 0.00 79 1013.4
20260902191358 25 166 8.0 16.1 0.00 0.00 0.00 78 1013.4
20260902190858 25 185 8.0 14.5 0.00 0.00 0.00 78 1013.4
20260902190358 25 143 8.0 16.1 0.00 0.00 0.00 79 1013.5
20260902185900 25 192 11.3 16.1 0.00 0.00 0.00 79 1013.5
20260902185354 25 0 9.7 16.1 0.00 0.00 0.00 80 1013.4
20260902184854 25 225 9.7 16.1 0.00 0.00 0.00 83 1013.4
20260902184354 25 161 11.3 17.7 0.00 0.00 0.00 83 1013.4
20260902183857 25 173 12.9 17.7 0.00 0.00 0.00 81 1013.3
20260902183354 25 173 9.7 17.7 0.00 0.00 0.00 82 1013.3
20260902182854 25 171 8.0 14.5 0.00 0.00 0.00 84 1013.4
20260902181854 25 161 11.3 17.7 0.00 0.00 0.00 85 1013.5
20260902180854 24 159 9.7 19.3 0.00 0.00 0.00 87 1013.4
20260902174853 24 0 8.0 12.9 0.00 0.00 0.00 86 1013.7
20260902174353 24 196 9.7 16.1 0.00 0.00 0.00 86 1013.9
20260902173853 24 170 9.7 16.1 0.00 0.00 0.00 85 1013.9
20260902173352 25 176 11.3 20.9 0.00 0.00 0.00 84 1014.0
20260902172852 25 167 12.9 20.9 0.00 0.00 0.00 85 1014.1
20260902172353 25 174 12.9 19.3 0.00 0.00 0.00 85 1014.3
20260902171851 24 154 12.9 22.5 0.00 0.00 0.00 85 1014.1
20260902171351 24 160 12.9 22.5 0.00 0.00 0.00 85 1014.2
20260902170349 24 177 14.5 24.1 0.00 0.00 0.00 86 1014.2
20260902165849 24 200 14.5 22.5 0.00 0.00 0.00 87 1014.4
20260902165347 23 151 14.5 22.5 0.00 0.00 0.00 87 1014.4
20260902164849 24 157 12.9 20.9 0.00 0.00 0.00 86 1014.4
20260902164344 23 172 12.9 20.9 0.00 0.00 0.00 87 1014.3
20260902163845 23 164 12.9 20.9 0.00 0.00 0.00 88 1014.5
20260902162344 23 164 14.5 22.5 0.00 0.00 0.00 88 1014.6
20260902161842 23 199 11.3 20.9 0.00 0.00 0.00 89 1014.5
20260902161336 23 151 3.2 17.7 0.00 0.00 0.00 88 1014.6
20260902160835 23 163 3.2 11.3 0.00 0.00 0.00 87 1014.6
20260902160334 23 163 6.4 11.3 0.00 0.00 0.00 86 1014.7
20260902155831 23 196 6.4 11.3 0.00 0.00 0.00 86 1014.5
20260902155330 23 230 8.0 12.9 0.00 0.00 0.00 86 1014.5
20260902154830 23 197 8.0 12.9 0.00 0.00 0.00 86 1014.5
20260902154330 24 215 6.4 12.9 0.00 0.00 0.00 86 1014.5
20260902153828 24 225 6.4 14.5 0.00 0.00 0.00 87 1014.5
20260902153326 24 157 8.0 16.1 0.00 0.00 0.00 87 1014.4
20260902152826 23 171 9.7 16.1 0.00 0.00 0.00 86 1014.3
20260902151826 23 157 6.4 16.1 0.00 0.00 0.00 87 1014.5
20260902151326 23 171 4.8 12.9 0.00 0.00 0.00 87 1014.4
20260902150828 23 178 4.8 17.7 0.00 0.00 0.00 88 1014.4
20260902150326 23 198 6.4 17.7 0.00 0.00 0.00 88 1014.3
20260902145325 23 171 1.6 9.7 0.00 0.00 0.00 89 1014.5
20260902143813 22 181 3.2 8.0 0.00 0.00 0.00 90 1014.9
20260902142801 22 182 3.2 9.7 0.00 0.00 0.00 90 1014.9
20260902141749 22 180 3.2 9.7 0.00 0.00 0.00 90 1015.1
20260902141243 22 173 3.2 9.7 0.00 0.00 0.00 90 1015.2
20260902140737 22 163 1.6 8.0 0.00 0.00 0.00 90 1015.1
20260902140232 21 167 0.0 6.4 0.00 0.00 0.00 91 1015.2
20260902135725 21 171 0.0 6.4 0.00 0.00 0.00 90 1015.3
20260902135219 21 208 0.0 4.8 0.00 0.00 0.00 91 1015.5
20260902134713 21 198 0.0 6.4 0.00 0.00 0.00 91 1015.6
20260902133702 21 199 0.0 4.8 0.00 0.00 0.00 91 1015.7
20260902133156 21 198 0.0 3.2 0.00 0.00 0.00 91 1015.6
20260902132649 21 212 0.0 0.0 0.00 0.00 0.00 92 1015.6
20260902132143 21 171 0.0 1.6 0.00 0.00 0.00 92 1015.6
20260902131637 21 171 0.0 1.6 0.00 0.00 0.00 91 1015.7
20260902131131 21 171 0.0 0.0 0.00 0.00 0.00 92 1015.7
20260902130625 21 171 0.0 0.0 0.00 0.00 0.00 92 1015.7
20260902130119 20 171 0.0 0.0 0.00 0.00 0.00 92 1015.8
20260902125614 20 171 0.0 1.6 0.00 0.00 0.00 93 1015.9
20260902125107 20 171 0.0 3.2 0.00 0.00 0.00 92 1016.0
20260902124601 20 171 0.0 3.2 0.00 0.00 0.00 92 1016.0
20260902124055 20 172 0.0 3.2 0.00 0.00 0.00 92 1015.9
20260902123554 20 175 1.6 6.4 0.00 0.00 0.00 93 1015.8
20260902123043 20 163 1.6 6.4 0.00 0.00 0.00 93 1015.7
20260902122537 20 0 0.0 4.8 0.00 0.00 0.00 93 1015.6
20260902121025 20 165 0.0 8.0 0.00 0.00 0.00 94 1015.7
20260902120524 20 178 0.0 0.0 0.00 0.00 0.00 94 1015.8
20260902120023 20 178 0.0 0.0 0.00 0.00 0.00 94 1015.8
20260902115023 20 177 0.0 0.0 0.00 0.00 0.00 94 1015.9
20260902114523 20 177 0.0 0.0 0.00 0.00 0.00 94 1015.8
20260902114024 20 177 0.0 0.0 0.00 0.00 0.00 94 1015.8
20260902113523 20 177 0.0 0.0 0.00 0.00 0.00 94 1015.7
20260902113022 20 177 0.0 0.0 0.00 0.00 0.00 94 1015.4
20260902112522 20 177 0.0 0.0 0.00 0.00 0.00 94 1015.2
20260902112021 20 177 0.0 0.0 0.00 0.00 0.00 94 1015.0
20260902111521 20 177 3.2 0.0 0.00 0.00 0.00 94 1015.0
20260902111021 -17 0.0 0.0 0.00 0.00 0.00 1015.3
20260902110519 -17 0.0 0.0 0.00 0.00 0.00 1015.1
20260902110017 -17 0.0 0.0 0.00 0.00 0.00 1015.0
20260902105506 -17 0.0 0.0 0.00 0.00 0.00 1014.9
20260902104926 -17 0.0 0.0 0.00 0.00 0.00 1015.0
20260902104424 -17 0.0 0.0 0.00 0.00 0.00 1015.1
20260902103921 -17 0.0 0.0 0.00 0.00 0.00 1015.3
20260902103328 -17 0.0 0.0 0.00 0.00 0.00 1015.4
20260902102320 -17 0.0 0.0 0.00 0.00 0.00 1015.6
20260902101723 -17 0.0 0.0 0.00 0.00 0.00 1015.8
20260902101221 -17 0.0 0.0 0.00 0.00 0.00 1015.8